Location: Great Malvern
(52.1167°N, 2.3167°W)
Time: 11:13:30
(UTC+00:00)

NOSS 2-3 (C) - Pass Details

Date: 18 September 2020
Orbit: 572 x 1640 km, 63.4° (Epoch: 14 October)

Event Time Altitude Azimuth Distance (km) Brightness Sun altitude
Rises 18:47:43 0° 237° (WSW) 2,830 7.8 -5.7°
Reaches altitude 10° 18:49:49 10° 241° (WSW) 1,989 7.0 -6.0°
Maximum altitude 18:54:12 62° 322° (NW) 788 4.4 -6.6°
Drops below altitude 10° 18:59:38 10° 44° (NE) 2,455 6.3 -7.4°
Sets 19:02:28 0° 48° (NE) 3,563 7.1 -7.9°
